TimeEDT,TemperatureF,Dew PointF,Humidity,Sea Level PressureIn,VisibilityMPH,Wind Direction,Wind SpeedMPH,Gust SpeedMPH,PrecipitationIn,Events,Conditions,WindDirDegrees,DateUTC
12:04 AM,57.2,55.4,94,29.91,0.8,Calm,Calm,-,0.00,Rain,Light Rain,0,2013-05-10 04:04:00
12:25 AM,55.4,55.4,100,29.91,0.2,Calm,Calm,-,0.00,Fog,Fog,0,2013-05-10 04:25:00
1:52 AM,55.0,53.1,93,29.91,0.8,Calm,Calm,-,N/A,,Overcast,0,2013-05-10 05:52:00
2:50 AM,53.6,51.8,94,29.91,1.2,Calm,Calm,-,N/A,,Overcast,0,2013-05-10 06:50:00
2:52 AM,54.0,52.0,93,29.91,2.0,Calm,Calm,-,N/A,,Overcast,0,2013-05-10 06:52:00
3:00 AM,53.6,51.8,94,29.91,4.0,Calm,Calm,-,N/A,,Overcast,0,2013-05-10 07:00:00
3:05 AM,53.6,51.8,94,29.91,1.5,Calm,Calm,-,N/A,,Overcast,0,2013-05-10 07:05:00
3:09 AM,53.6,51.8,94,29.91,0.8,Calm,Calm,-,N/A,,Overcast,0,2013-05-10 07:09:00
3:16 AM,53.6,51.8,94,29.91,1.0,Calm,Calm,-,N/A,,Overcast,0,2013-05-10 07:16:00
3:19 AM,53.6,51.8,94,29.91,1.2,Calm,Calm,-,N/A,,Overcast,0,2013-05-10 07:19:00
3:26 AM,53.6,51.8,94,29.91,2.0,Calm,Calm,-,N/A,,Overcast,0,2013-05-10 07:26:00
3:34 AM,53.6,51.8,94,29.91,3.0,Calm,Calm,-,N/A,,Overcast,0,2013-05-10 07:34:00
4:00 AM,53.6,51.8,94,29.92,1.8,Calm,Calm,-,N/A,,Overcast,0,2013-05-10 08:00:00
4:10 AM,53.6,51.8,94,29.92,3.0,Calm,Calm,-,N/A,,Overcast,0,2013-05-10 08:10:00
4:30 AM,53.6,51.8,94,29.92,7.0,Calm,Calm,-,N/A,,Overcast,0,2013-05-10 08:30:00
4:52 AM,53.1,52.0,96,29.92,10.0,Calm,Calm,-,N/A,,Overcast,0,2013-05-10 08:52:00
5:52 AM,53.1,51.1,93,29.94,6.0,Calm,Calm,-,0.00,Rain,Light Rain,0,2013-05-10 09:52:00
6:07 AM,53.6,51.8,94,29.94,8.0,Calm,Calm,-,0.00,,Overcast,0,2013-05-10 10:07:00
6:48 AM,55.4,53.6,94,29.94,4.0,Calm,Calm,-,0.00,,Overcast,0,2013-05-10 10:48:00
6:52 AM,55.0,53.1,93,29.94,5.0,Calm,Calm,-,0.00,,Mostly Cloudy,0,2013-05-10 10:52:00
7:09 AM,55.4,53.6,94,29.95,8.0,Calm,Calm,-,N/A,,Mostly Cloudy,0,2013-05-10 11:09:00
7:52 AM,57.0,54.0,89,29.96,10.0,Calm,Calm,-,N/A,,Unknown,0,2013-05-10 11:52:00
8:15 AM,57.2,53.6,88,29.96,10.0,Calm,Calm,-,N/A,,Overcast,0,2013-05-10 12:15:00
8:36 AM,59.0,55.4,88,29.97,10.0,Calm,Calm,-,N/A,,Overcast,0,2013-05-10 12:36:00
8:52 AM,57.9,55.0,90,29.98,10.0,Calm,Calm,-,N/A,,Overcast,0,2013-05-10 12:52:00
9:34 AM,60.8,55.4,82,29.96,10.0,Calm,Calm,-,N/A,,Overcast,0,2013-05-10 13:34:00
9:47 AM,60.8,55.4,82,29.96,10.0,Calm,Calm,-,N/A,,Overcast,0,2013-05-10 13:47:00
9:52 AM,61.0,55.0,81,29.96,10.0,Calm,Calm,-,N/A,,Overcast,0,2013-05-10 13:52:00
10:52 AM,63.0,55.0,75,29.98,10.0,WNW,4.6,-,N/A,,Overcast,300,2013-05-10 14:52:00
11:52 AM,64.0,55.0,73,29.97,10.0,Calm,Calm,-,N/A,,Overcast,0,2013-05-10 15:52:00
12:20 PM,64.4,55.4,73,29.97,10.0,North,3.5,-,N/A,,Overcast,360,2013-05-10 16:20:00
12:52 PM,64.9,54.0,68,29.97,10.0,Calm,Calm,-,0.00,,Mostly Cloudy,0,2013-05-10 16:52:00
1:52 PM,66.0,55.9,70,29.95,10.0,Calm,Calm,-,0.00,,Overcast,0,2013-05-10 17:52:00
2:52 PM,72.0,52.0,49,29.93,10.0,Calm,Calm,-,N/A,,Clear,0,2013-05-10 18:52:00
3:52 PM,72.0,52.0,49,29.92,10.0,Calm,Calm,-,N/A,,Mostly Cloudy,0,2013-05-10 19:52:00
4:52 PM,73.0,50.0,44,29.91,10.0,Variable,3.5,-,N/A,,Scattered Clouds,0,2013-05-10 20:52:00
5:52 PM,71.1,51.1,49,29.91,10.0,Calm,Calm,-,N/A,,Overcast,0,2013-05-10 21:52:00
6:08 PM,64.4,57.2,77,29.91,2.0,ESE,6.9,-,0.08,Rain,Rain,120,2013-05-10 22:08:00
6:17 PM,64.4,57.2,77,29.90,8.0,ENE,4.6,-,0.08,Rain,Light Rain,60,2013-05-10 22:17:00
6:52 PM,64.9,57.0,75,29.91,10.0,Calm,Calm,-,0.08,,Partly Cloudy,0,2013-05-10 22:52:00
7:52 PM,63.0,59.0,87,29.92,10.0,Calm,Calm,-,N/A,,Scattered Clouds,0,2013-05-10 23:52:00
8:52 PM,60.1,57.9,93,29.90,3.0,Calm,Calm,-,N/A,,Scattered Clouds,0,2013-05-11 00:52:00
9:04 PM,59.0,57.2,94,29.90,1.8,Calm,Calm,-,N/A,,Partly Cloudy,0,2013-05-11 01:04:00
9:08 PM,59.0,57.2,94,29.90,0.8,Calm,Calm,-,N/A,,Mist,0,2013-05-11 01:08:00
9:29 PM,59.0,57.2,94,29.90,1.2,NW,3.5,-,N/A,,Scattered Clouds,310,2013-05-11 01:29:00
9:33 PM,59.0,55.4,88,29.90,3.0,NW,3.5,-,N/A,,Scattered Clouds,310,2013-05-11 01:33:00
9:52 PM,57.9,55.0,90,29.90,10.0,Calm,Calm,-,N/A,,Scattered Clouds,0,2013-05-11 01:52:00
10:52 PM,60.1,55.0,83,29.88,10.0,Calm,Calm,-,N/A,,Mostly Cloudy,0,2013-05-11 02:52:00
11:52 PM,61.0,55.0,81,29.86,10.0,Variable,3.5,-,N/A,,Scattered Clouds,0,2013-05-11 03:52:00